Time,TemperatureF,DewpointF,PressureIn,WindDirection,WindDirectionDegrees,WindSpeedMPH,WindSpeedGustMPH,Humidity,HourlyPrecipIn,Conditions,Clouds,dailyrainin,SolarRadiationWatts/m^2,SoftwareType,DateUTC
2013-02-06 00:09:00,67.6,62.0,29.99,SSE,157,0.0,-999.0,81,-99.99,,,0.00,0,weatherlink.com 1.10,2013-02-06 05:09:00,
2013-02-06 00:24:00,67.4,62.0,29.99,SSE,157,0.0,-999.0,82,-99.99,,,0.00,0,weatherlink.com 1.10,2013-02-06 05:24:00,
2013-02-06 00:39:00,67.6,62.0,29.99,SSE,157,0.0,-999.0,82,-99.99,,,0.00,0,weatherlink.com 1.10,2013-02-06 05:39:00,
2013-02-06 00:54:00,67.6,62.0,29.99,SSE,157,0.0,-999.0,83,-99.99,,,0.00,0,weatherlink.com 1.10,2013-02-06 05:54:00,
2013-02-06 01:09:00,67.6,62.0,29.99,SSE,157,0.0,-999.0,83,-99.99,,,0.00,0,weatherlink.com 1.10,2013-02-06 06:09:00,
2013-02-06 01:24:00,67.4,62.0,29.99,SSE,157,0.0,-999.0,84,-99.99,,,0.00,0,weatherlink.com 1.10,2013-02-06 06:24:00,
2013-02-06 01:39:00,67.3,62.0,29.99,SSE,157,0.0,-999.0,84,-99.99,,,0.00,0,weatherlink.com 1.10,2013-02-06 06:39:00,
2013-02-06 01:54:00,67.1,62.0,29.98,SSE,157,0.0,-999.0,84,-99.99,,,0.00,0,weatherlink.com 1.10,2013-02-06 06:54:00,
2013-02-06 02:09:00,66.8,62.0,29.98,SSE,157,0.0,-999.0,84,-99.99,,,0.00,0,weatherlink.com 1.10,2013-02-06 07:09:00,
2013-02-06 02:24:00,66.6,62.0,29.97,SSE,157,0.0,-999.0,85,-99.99,,,0.00,0,weatherlink.com 1.10,2013-02-06 07:24:00,
2013-02-06 02:39:00,66.3,62.0,29.97,SSE,157,0.0,-999.0,85,-99.99,,,0.00,0,weatherlink.com 1.10,2013-02-06 07:39:00,
2013-02-06 02:54:00,66.0,61.0,29.97,SSE,157,2.0,-999.0,85,-99.99,,,0.00,0,weatherlink.com 1.10,2013-02-06 07:54:00,
2013-02-06 03:09:00,66.0,62.0,29.97,SSE,157,0.0,-999.0,86,-99.99,,,0.00,0,weatherlink.com 1.10,2013-02-06 08:09:00,
2013-02-06 03:24:00,66.0,62.0,29.97,SSE,157,0.0,-999.0,86,-99.99,,,0.00,0,weatherlink.com 1.10,2013-02-06 08:24:00,
2013-02-06 03:39:00,65.8,62.0,29.97,SSE,157,0.0,-999.0,87,-99.99,,,0.00,0,weatherlink.com 1.10,2013-02-06 08:39:00,
2013-02-06 03:54:00,65.6,62.0,29.97,SSE,157,0.0,-999.0,87,-99.99,,,0.00,0,weatherlink.com 1.10,2013-02-06 08:54:00,
2013-02-06 04:09:00,65.6,62.0,29.97,SSE,157,0.0,-999.0,87,-99.99,,,0.00,0,weatherlink.com 1.10,2013-02-06 09:09:00,
2013-02-06 04:24:00,65.5,62.0,29.97,SSE,157,0.0,-999.0,87,-99.99,,,0.00,0,weatherlink.com 1.10,2013-02-06 09:24:00,
2013-02-06 04:39:00,65.2,62.0,29.97,SSE,157,0.0,-999.0,88,-99.99,,,0.00,0,weatherlink.com 1.10,2013-02-06 09:39:00,
2013-02-06 04:54:00,65.0,61.0,29.98,SSE,157,0.0,-999.0,88,-99.99,,,0.00,0,weatherlink.com 1.10,2013-02-06 09:54:00,
2013-02-06 05:09:00,64.8,61.0,29.98,SSE,157,0.0,-999.0,88,-99.99,,,0.00,0,weatherlink.com 1.10,2013-02-06 10:09:00,
2013-02-06 05:24:00,64.3,61.0,29.98,SSE,157,0.0,-999.0,88,-99.99,,,0.00,0,weatherlink.com 1.10,2013-02-06 10:24:00,
2013-02-06 05:39:00,64.0,60.0,29.98,SSE,157,0.0,-999.0,88,-99.99,,,0.00,0,weatherlink.com 1.10,2013-02-06 10:39:00,
2013-02-06 05:54:00,63.7,60.0,29.99,SSE,157,0.0,-999.0,88,-99.99,,,0.00,0,weatherlink.com 1.10,2013-02-06 10:54:00,
2013-02-06 06:09:00,63.5,60.0,30.00,SSE,157,0.0,-999.0,88,-99.99,,,0.00,0,weatherlink.com 1.10,2013-02-06 11:09:00,
2013-02-06 06:24:00,63.7,61.0,30.00,SSE,157,0.0,-999.0,89,-99.99,,,0.00,0,weatherlink.com 1.10,2013-02-06 11:24:00,
2013-02-06 06:39:00,63.7,61.0,30.01,SSE,157,0.0,-999.0,89,-99.99,,,0.00,0,weatherlink.com 1.10,2013-02-06 11:39:00,
2013-02-06 06:54:00,63.7,61.0,30.01,SSE,157,0.0,-999.0,89,-99.99,,,0.00,0,weatherlink.com 1.10,2013-02-06 11:54:00,
2013-02-06 07:09:00,63.5,60.0,30.02,SSE,157,0.0,-999.0,89,-99.99,,,0.00,7,weatherlink.com 1.10,2013-02-06 12:09:00,
2013-02-06 07:24:00,63.5,61.0,30.02,SSE,157,0.0,-999.0,90,-99.99,,,0.00,19,weatherlink.com 1.10,2013-02-06 12:24:00,
2013-02-06 07:39:00,63.9,61.0,30.02,SSE,157,0.0,-999.0,90,-99.99,,,0.00,30,weatherlink.com 1.10,2013-02-06 12:39:00,
2013-02-06 07:54:00,64.2,61.0,30.02,SSE,157,0.0,-999.0,90,-99.99,,,0.00,35,weatherlink.com 1.10,2013-02-06 12:54:00,
2013-02-06 08:09:00,64.5,62.0,30.03,SSE,157,0.0,-999.0,90,-99.99,,,0.00,42,weatherlink.com 1.10,2013-02-06 13:09:00,
2013-02-06 08:29:00,65.5,63.0,30.03,NE,34,1.0,-999.0,90,-99.99,,,0.00,53,weatherlink.com 1.10,2013-02-06 13:29:00,
2013-02-06 08:39:00,68.3,64.0,30.04,NW,323,1.0,-999.0,85,-99.99,,,0.00,102,weatherlink.com 1.10,2013-02-06 13:39:00,
2013-02-06 08:54:00,69.6,63.0,30.04,NW,317,0.0,-999.0,80,-99.99,,,0.00,193,weatherlink.com 1.10,2013-02-06 13:54:00,
2013-02-06 09:09:00,71.8,64.0,30.04,NW,317,3.0,-999.0,76,-99.99,,,0.00,455,weatherlink.com 1.10,2013-02-06 14:09:00,
2013-02-06 09:24:00,72.8,64.0,30.05,NW,321,0.0,-999.0,74,-99.99,,,0.00,260,weatherlink.com 1.10,2013-02-06 14:24:00,
2013-02-06 09:39:00,73.5,65.0,30.05,NW,321,0.0,-999.0,74,-99.99,,,0.00,297,weatherlink.com 1.10,2013-02-06 14:39:00,
2013-02-06 09:54:00,75.3,65.0,30.05,ENE,71,0.0,-999.0,71,-99.99,,,0.00,545,weatherlink.com 1.10,2013-02-06 14:54:00,
2013-02-06 10:09:00,76.3,65.0,30.05,ENE,78,2.0,-999.0,69,-99.99,,,0.00,554,weatherlink.com 1.10,2013-02-06 15:09:00,
2013-02-06 10:24:00,77.2,65.0,30.05,SSE,158,2.0,-999.0,67,-99.99,,,0.00,606,weatherlink.com 1.10,2013-02-06 15:24:00,
2013-02-06 10:39:00,77.2,65.0,30.05,ENE,64,3.0,-999.0,67,-99.99,,,0.00,656,weatherlink.com 1.10,2013-02-06 15:39:00,
2013-02-06 10:54:00,78.5,65.0,30.05,SE,128,0.0,-999.0,64,-99.99,,,0.00,705,weatherlink.com 1.10,2013-02-06 15:54:00,
2013-02-06 11:09:00,78.1,64.0,30.04,ENE,76,2.0,-999.0,63,-99.99,,,0.00,707,weatherlink.com 1.10,2013-02-06 16:09:00,
2013-02-06 11:24:00,78.8,66.0,30.05,ENE,75,0.0,-999.0,64,-99.99,,,0.00,798,weatherlink.com 1.10,2013-02-06 16:24:00,
2013-02-06 11:39:00,78.5,65.0,30.04,ENE,62,1.0,-999.0,63,-99.99,,,0.00,800,weatherlink.com 1.10,2013-02-06 16:39:00,
2013-02-06 12:09:00,79.6,65.0,30.04,ENE,74,6.0,-999.0,61,-99.99,,,0.00,840,weatherlink.com 1.10,2013-02-06 17:09:00,
2013-02-06 12:24:00,79.8,65.0,30.04,SE,146,0.0,-999.0,61,-99.99,,,0.00,784,weatherlink.com 1.10,2013-02-06 17:24:00,
2013-02-06 12:39:00,79.0,65.0,30.03,ENE,57,2.0,-999.0,62,-99.99,,,0.00,782,weatherlink.com 1.10,2013-02-06 17:39:00,
2013-02-06 12:54:00,79.6,64.0,30.02,SSE,164,5.0,-999.0,59,-99.99,,,0.00,772,weatherlink.com 1.10,2013-02-06 17:54:00,
2013-02-06 13:09:00,79.2,65.0,30.02,SE,142,2.0,-999.0,61,-99.99,,,0.00,758,weatherlink.com 1.10,2013-02-06 18:09:00,
2013-02-06 13:24:00,79.8,66.0,30.01,ESE,117,2.0,-999.0,62,-99.99,,,0.00,747,weatherlink.com 1.10,2013-02-06 18:24:00,
2013-02-06 13:39:00,79.8,66.0,30.00,ENE,65,2.0,-999.0,62,-99.99,,,0.00,740,weatherlink.com 1.10,2013-02-06 18:39:00,
2013-02-06 13:54:00,79.9,66.0,30.00,ENE,59,4.0,-999.0,62,-99.99,,,0.00,726,weatherlink.com 1.10,2013-02-06 18:54:00,
2013-02-06 14:09:00,78.8,65.0,30.00,ENE,76,2.0,-999.0,62,-99.99,,,0.00,740,weatherlink.com 1.10,2013-02-06 19:09:00,
2013-02-06 14:24:00,79.4,65.0,30.00,ENE,71,1.0,-999.0,62,-99.99,,,0.00,715,weatherlink.com 1.10,2013-02-06 19:24:00,
2013-02-06 14:39:00,78.1,65.0,30.00,ESE,105,4.0,-999.0,65,-99.99,,,0.00,729,weatherlink.com 1.10,2013-02-06 19:39:00,
2013-02-06 14:54:00,79.0,65.0,30.00,SE,144,1.0,-999.0,63,-99.99,,,0.00,666,weatherlink.com 1.10,2013-02-06 19:54:00,
2013-02-06 15:09:00,78.5,65.0,30.00,ENE,73,3.0,-999.0,63,-99.99,,,0.00,327,weatherlink.com 1.10,2013-02-06 20:09:00,
2013-02-06 15:24:00,77.4,65.0,29.99,South,171,3.0,-999.0,65,-99.99,,,0.00,250,weatherlink.com 1.10,2013-02-06 20:24:00,
2013-02-06 15:39:00,77.0,65.0,29.99,ESE,111,0.0,-999.0,67,-99.99,,,0.00,165,weatherlink.com 1.10,2013-02-06 20:39:00,
2013-02-06 15:54:00,76.8,65.0,30.00,SE,136,0.0,-999.0,67,-99.99,,,0.00,172,weatherlink.com 1.10,2013-02-06 20:54:00,
2013-02-06 16:09:00,76.7,64.0,29.99,ENE,62,6.0,-999.0,66,-99.99,,,0.00,142,weatherlink.com 1.10,2013-02-06 21:09:00,
2013-02-06 16:24:00,76.7,64.0,30.00,ENE,59,2.0,-999.0,66,-99.99,,,0.00,93,weatherlink.com 1.10,2013-02-06 21:24:00,
2013-02-06 16:39:00,76.1,64.0,29.99,ENE,60,2.0,-999.0,66,-99.99,,,0.00,116,weatherlink.com 1.10,2013-02-06 21:39:00,
2013-02-06 16:54:00,75.8,64.0,30.00,ENE,63,0.0,-999.0,67,-99.99,,,0.00,54,weatherlink.com 1.10,2013-02-06 21:54:00,
2013-02-06 17:09:00,75.6,64.0,30.00,ESE,113,0.0,-999.0,67,-99.99,,,0.00,39,weatherlink.com 1.10,2013-02-06 22:09:00,
2013-02-06 17:24:00,75.4,64.0,30.00,NNE,30,2.0,-999.0,68,-99.99,,,0.00,120,weatherlink.com 1.10,2013-02-06 22:24:00,
2013-02-06 17:39:00,75.3,64.0,30.00,ENE,67,2.0,-999.0,69,-99.99,,,0.00,60,weatherlink.com 1.10,2013-02-06 22:39:00,
2013-02-06 17:54:00,75.1,65.0,30.00,SE,132,0.0,-999.0,70,-99.99,,,0.00,14,weatherlink.com 1.10,2013-02-06 22:54:00,
2013-02-06 18:09:00,75.1,65.0,30.00,SE,138,0.0,-999.0,70,-99.99,,,0.00,0,weatherlink.com 1.10,2013-02-06 23:09:00,
2013-02-06 18:24:00,74.7,65.0,30.00,SSE,159,0.0,-999.0,71,-99.99,,,0.00,0,weatherlink.com 1.10,2013-02-06 23:24:00,
2013-02-06 18:39:00,74.2,64.0,30.00,ENE,70,0.0,-999.0,70,-99.99,,,0.00,0,weatherlink.com 1.10,2013-02-06 23:39:00,
2013-02-06 18:54:00,73.7,63.0,30.01,NE,46,1.0,-999.0,69,-99.99,,,0.00,0,weatherlink.com 1.10,2013-02-06 23:54:00,
2013-02-06 19:09:00,73.5,62.0,30.01,ENE,76,0.0,-999.0,68,-99.99,,,0.00,0,weatherlink.com 1.10,2013-02-07 00:09:00,
2013-02-06 19:24:00,73.5,62.0,30.02,SSE,160,0.0,-999.0,68,-99.99,,,0.00,0,weatherlink.com 1.10,2013-02-07 00:24:00,
2013-02-06 19:39:00,73.5,62.0,30.02,ENE,78,0.0,-999.0,68,-99.99,,,0.00,0,weatherlink.com 1.10,2013-02-07 00:39:00,
2013-02-06 19:54:00,73.5,62.0,30.02,ENE,69,0.0,-999.0,67,-99.99,,,0.00,0,weatherlink.com 1.10,2013-02-07 00:54:00,
2013-02-06 20:09:00,73.3,62.0,30.02,ENE,69,1.0,-999.0,67,-99.99,,,0.00,0,weatherlink.com 1.10,2013-02-07 01:09:00,
2013-02-06 20:24:00,73.7,63.0,30.02,East,80,1.0,-999.0,69,-99.99,,,0.00,0,weatherlink.com 1.10,2013-02-07 01:24:00,
2013-02-06 20:39:00,73.5,63.0,30.03,ENE,65,1.0,-999.0,69,-99.99,,,0.00,0,weatherlink.com 1.10,2013-02-07 01:39:00,
2013-02-06 20:54:00,73.3,63.0,30.02,NE,54,2.0,-999.0,69,-99.99,,,0.00,0,weatherlink.com 1.10,2013-02-07 01:54:00,
2013-02-06 21:09:00,73.5,63.0,30.02,East,101,0.0,-999.0,70,-99.99,,,0.00,0,weatherlink.com 1.10,2013-02-07 02:09:00,
2013-02-06 21:24:00,73.3,63.0,30.03,ENE,74,2.0,-999.0,70,-99.99,,,0.00,0,weatherlink.com 1.10,2013-02-07 02:24:00,
2013-02-06 21:39:00,73.3,63.0,30.03,ENE,59,0.0,-999.0,70,-99.99,,,0.00,0,weatherlink.com 1.10,2013-02-07 02:39:00,
2013-02-06 21:54:00,73.3,63.0,30.03,East,92,0.0,-999.0,70,-99.99,,,0.00,0,weatherlink.com 1.10,2013-02-07 02:54:00,
2013-02-06 22:09:00,73.2,63.0,30.03,SE,129,0.0,-999.0,70,-99.99,,,0.00,0,weatherlink.com 1.10,2013-02-07 03:09:00,
2013-02-06 22:25:00,73.3,63.0,30.03,South,169,0.0,-999.0,71,-99.99,,,0.00,0,weatherlink.com 1.10,2013-02-07 03:25:00,
2013-02-06 22:39:00,73.3,63.0,30.03,SE,129,0.0,-999.0,71,-99.99,,,0.00,0,weatherlink.com 1.10,2013-02-07 03:39:00,
2013-02-06 22:54:00,73.5,64.0,30.03,SSE,147,3.0,-999.0,72,-99.99,,,0.00,0,weatherlink.com 1.10,2013-02-07 03:54:00,
2013-02-06 23:09:00,73.5,64.0,30.03,ESE,107,1.0,-999.0,72,-99.99,,,0.00,0,weatherlink.com 1.10,2013-02-07 04:09:00,
2013-02-06 23:24:00,73.3,64.0,30.03,ESE,109,2.0,-999.0,72,-99.99,,,0.00,0,weatherlink.com 1.10,2013-02-07 04:24:00,
2013-02-06 23:40:00,73.3,64.0,30.02,East,86,0.0,-999.0,72,-99.99,,,0.00,0,weatherlink.com 1.10,2013-02-07 04:40:00,
2013-02-06 23:55:00,73.2,64.0,30.02,ESE,115,1.0,-999.0,72,-99.99,,,0.00,0,weatherlink.com 1.10,2013-02-07 04:55:00,